This demonstration page uses our WeatherBlox Daily Observations layout. Learn more.

Left ArrowRight Arrow

Hourly Observations for August 26, 2021

Temp ( °F °C ) Dew Point ( °F °C ) Humidity (%) Winds ( mph kmh ) Pressure ( in mb ) Visibility ( mi km ) Precip ( " mm )
12:15 am 00:15 Clear 69 20.6 69 20.4 99 99 Calm 30.12 1020 7 11 0.00 0.00
12:35 am 00:35 Clear with Mist and Fog 69 20.6 69 20.3 98 98 Calm 30.11 1020 5 8 0.00 0.00
12:55 am 00:55 Clear with Mist and Fog 69 20.5 69 20.3 99 99 Calm 30.12 1020 5 8 0.00 0.00
1:15 am 01:15 Clear with Mist and Fog 69 20.6 69 20.5 99 99 NNW 15 24 30.14 1021 5 8 0.00 0.00
1:35 am 01:35 Partly Cloudy 72 22.2 69 20.8 92 92 WNW 3 6 30.15 1021 10 16 0.00 0.00
1:55 am 01:55 Partly Cloudy 72 22 69 20.6 92 92 NNW 3 6 30.15 1021 10 16 0.00 0.00
2:15 am 02:15 Partly Cloudy 72 22.2 69 20.8 92 92 NNW 7 11 30.15 1021 10 16 0.00 0.00
2:35 am 02:35 Partly Cloudy 72 22.2 69 20.8 92 92 N 3 6 30.14 1021 10 16 0.00 0.00
2:55 am 02:55 Mostly Cloudy 71 21.7 69 20.8 95 95 N 3 6 30.14 1021 10 16 0.00 0.00
3:15 am 03:15 Mostly Cloudy 72 22.1 69 20.7 92 92 NNW 7 11 30.15 1021 10 16 0.00 0.00
3:35 am 03:35 Partly Cloudy 72 22 69 20.5 91 91 NNW 6 9 30.14 1021 10 16 0.00 0.00
3:55 am 03:55 Mostly Cloudy with Drizzle 71 21.7 69 20.5 93 93 NE 3 6 30.14 1021 10 16 0.00 0.00
4:15 am 04:15 Partly Cloudy 71 21.4 69 20.5 95 95 Calm 30.13 1020 10 16 0.00 0.00
4:35 am 04:35 Clear 70 21 69 20.3 96 96 Calm 30.13 1020 10 16 0.00 0.00
4:55 am 04:55 Clear 69 20.6 68 20.1 97 97 SSE 3 6 30.13 1020 10 16 0.00 0.00
5:15 am 05:15 Clear 69 20.5 68 20 97 97 E 3 6 30.11 1020 10 16 0.00 0.00
5:35 am 05:35 Clear 69 20.5 68 20 97 97 Calm 30.12 1020 10 16 0.00 0.00
5:55 am 05:55 Clear 69 20.3 68 20 98 98 Calm 30.14 1020 10 16 0.00 0.00
6:15 am 06:15 Clear 69 20.3 68 20 98 98 Calm 30.14 1020 10 16 0.00 0.00
6:35 am 06:35 Partly Cloudy 69 20.3 68 20 98 98 SE 3 6 30.14 1020 10 16 0.00 0.00
6:55 am 06:55 Partly Cloudy 69 20.7 68 20.1 96 96 ESE 3 6 30.13 1020 10 16 0.00 0.00
7:15 am 07:15 Partly Cloudy 69 20.6 68 20.1 97 97 Calm 30.13 1020 10 16 0.00 0.00
7:35 am 07:35 Sunny 69 20.7 68 20.1 96 96 S 5 7 30.15 1021 10 16 0.00 0.00
7:55 am 07:55 Sunny 70 21 69 20.3 96 96 Calm 30.15 1021 10 16 0.00 0.00
8:15 am 08:15 Sunny 71 21.5 69 20.7 95 95 Calm 30.15 1021 10 16 0.00 0.00
8:35 am 08:35 Sunny 72 22 70 20.9 94 94 Calm 30.15 1021 10 16 0.00 0.00
8:55 am 08:55 Sunny 73 22.5 70 20.9 91 91 Calm 30.15 1021 10 16 0.00 0.00
9:15 am 09:15 Sunny 73 22.7 69 20.8 89 89 Calm 30.15 1021 10 16 0.01 0.25
9:35 am 09:35 Sunny 74 23.1 70 21 88 88 Calm 30.15 1021 10 16 0.01 0.25
9:55 am 09:55 Partly Cloudy 75 24 70 21 83 83 Calm 30.14 1021 10 16 0.01 0.25
10:15 am 10:15 Sunny 76 24.6 69 20.6 78 78 Calm 30.14 1021 10 16 0.00 0.00
10:35 am 10:35 Mostly Cloudy 78 25.3 70 21 77 77 Calm 30.14 1021 10 16 0.00 0.00
10:55 am 10:55 Mostly Cloudy with Nearby Thunderstorms 78 25.6 70 21 76 76 SSE 3 6 30.15 1021 10 16 0.00 0.00
11:15 am 11:15 Mostly Cloudy with Nearby Thunderstorms 79 26.3 70 21.1 73 73 Calm 30.15 1021 10 16 0.00 0.00
11:35 am 11:35 Mostly Cloudy 79 26.2 70 21.2 74 74 ENE 3 6 30.16 1021 10 16 0.00 0.00
11:55 am 11:55 Mostly Cloudy with Nearby Thunderstorms 81 27 73 22.5 76 76 NNE 5 7 30.14 1021 10 16 0.00 0.00
12:15 pm 12:15 Partly Cloudy 82 27.6 72 22 72 72 ENE 6 9 30.14 1021 10 16 0.00 0.00
12:35 pm 12:35 Mostly Cloudy 82 27.5 72 22.4 74 74 N 8 13 30.16 1021 10 16 0.00 0.00
12:55 pm 12:55 Cloudy 78 25.6 72 22.2 82 82 N 8 13 30.17 1022 10 16 0.00 0.00
1:15 pm 13:15 Mostly Cloudy 79 26 73 22.5 81 81 NNE 7 11 30.15 1021 10 16 0.00 0.00
1:35 pm 13:35 Partly Cloudy 81 27.3 73 22.7 76 76 ENE 5 7 30.14 1021 10 16 0.00 0.00
1:55 pm 13:55 Partly Cloudy 82 28 72 22.4 72 72 Calm 30.12 1020 10 16 0.00 0.00
2:15 pm 14:15 Sunny 84 29 72 22.4 68 68 ENE 5 7 30.11 1020 10 16 0.00 0.00
2:35 pm 14:35 Sunny 86 30 72 22.4 64 64 ENE 5 7 30.10 1019 10 16 0.00 0.00
2:55 pm 14:55 Sunny 87 30.6 72 22.4 62 62 Calm 30.08 1019 10 16 0.00 0.00
3:15 pm 15:15 Sunny 88 31 74 23.1 63 63 E 5 7 30.07 1018 10 16 0.00 0.00
3:35 pm 15:35 Partly Cloudy 85 29.2 73 22.8 68 68 NNE 3 6 30.07 1018 10 16 0.00 0.00
3:55 pm 15:55 Mostly Cloudy 87 30.3 73 22.6 63 63 NE 3 6 30.06 1018 10 16 0.00 0.00
4:15 pm 16:15 Mostly Cloudy 85 29.5 73 22.7 67 67 Calm 30.07 1018 10 16 0.00 0.00
4:35 pm 16:35 Cloudy 87 30.5 74 23.3 65 65 E 3 6 30.05 1018 10 16 0.00 0.00
4:55 pm 16:55 Mostly Cloudy 85 29.2 73 23 69 69 E 5 7 30.06 1018 10 16 0.00 0.00
5:15 pm 17:15 Cloudy with Nearby Thunderstorms 79 26 67 19.7 68 68 WNW 12 19 30.09 1019 10 16 0.00 0.00
5:35 pm 17:35 Cloudy with Thunderstorms 76 24.5 68 20.1 77 77 NE 9 15 30.09 1019 10 16 0.00 0.00
5:55 pm 17:55 Mostly Cloudy 74 23.5 70 21.1 86 86 N 6 9 30.09 1019 10 16 0.00 0.00
6:15 pm 18:15 Partly Cloudy 73 23 69 20.7 87 87 N 7 11 30.12 1020 10 16 0.00 0.00
6:35 pm 18:35 Partly Cloudy 74 23.1 69 20.6 86 86 ENE 5 7 30.13 1020 10 16 0.00 0.00
6:55 pm 18:55 Partly Cloudy with Nearby Thunderstorms 73 23 70 21.3 90 90 E 6 9 30.12 1020 10 16 0.00 0.00
7:15 pm 19:15 Partly Cloudy 73 22.6 70 20.9 90 90 E 9 15 30.12 1020 10 16 0.00 0.00
7:35 pm 19:35 Cloudy 71 21.9 68 19.9 88 88 E 6 9 30.12 1020 10 16 0.00 0.00
7:55 pm 19:55 Cloudy with Thunderstorms 71 21.6 68 19.8 90 90 E 6 9 30.12 1020 10 16 0.00 0.00
8:15 pm 20:15 Partly Cloudy 70 21.3 68 19.8 91 91 E 3 6 30.11 1020 10 16 0.00 0.00
8:35 pm 20:35 Clear 70 21 68 19.8 93 93 E 6 9 30.11 1020 10 16 0.00 0.00
8:55 pm 20:55 Partly Cloudy 69 20.8 67 19.6 93 93 Calm 30.11 1020 10 16 0.00 0.00
9:15 pm 21:15 Partly Cloudy 69 20.5 67 19.5 94 94 Calm 30.12 1020 10 16 0.00 0.00
9:35 pm 21:35 Partly Cloudy 68 20.2 67 19.5 96 96 Calm 30.12 1020 10 16 0.00 0.00
9:55 pm 21:55 Clear 68 20 67 19.3 96 96 SSE 3 6 30.12 1020 10 16 0.00 0.00
10:15 pm 22:15 Clear 68 20.1 67 19.3 95 95 Calm 30.12 1020 10 16 0.00 0.00
10:35 pm 22:35 Clear 68 20 67 19.5 97 97 Calm 30.12 1020 10 16 0.00 0.00
10:55 pm 22:55 Partly Cloudy 68 20.2 67 19.3 95 95 SE 3 6 30.12 1020 10 16 0.00 0.00
11:15 pm 23:15 Partly Cloudy 68 20 67 19.5 97 97 Calm 30.12 1020 10 16 0.00 0.00
11:35 pm 23:35 Clear 68 20 67 19.5 97 97 ESE 3 6 30.11 1020 10 16 0.00 0.00
11:55 pm 23:55 Clear 68 20.1 67 19.5 96 96 Calm 30.12 1020 10 16 0.00 0.00

Powered by AerisWeather